Regional Weather Roundup
Issued by NWS

Home | Current Version | Previous Version | Graphics & Text | Print | Product List | Glossary On
Versions: 1 2 3 4 5 6 7 8 9 10 11 12 13 14 15 16 17 18 19 20 21 22 23 24 25 26 27 28 29 30 31 32 33 34 35 36 37 38 39 40 41 42 43 44 45 46 47 48 49 50
000
ASUS45 KBOU 061307
RWRCO

WEATHER ROUNDUP FOR COLORADO
NATIONAL WEATHER SERVICE DENVER/BOULDER CO
700 AM MDT WED MAY 06 2015

NOTE: "FAIR" INDICATES FEW OR NO CLOUDS BELOW 12000 FEET WITH NO
SIGNIFICANT WEATHER AND/OR OBSTRUCTIONS TO VISIBILITY.

COZ001>005-013-030-031-061400-
...NORTHWEST COLORADO...

CITY           SKY/WX    TMP DP  RH WIND       PRES   REMARKS
CRAIG          CLOUDY    48  45  89 SW7       29.80S
HAYDEN         CLOUDY    46  43  87 W9        29.80S
MEEKER         LGT RAIN  46  43  89 NE7       29.82S FOG
MOUNT WERNER   NOT AVBL
STEAMBOAT SPGS CLOUDY    45  44  97 CALM      29.80S
WALDEN         CLOUDY    39  37  93 NW6       29.82R
$$

COZ006>008-011-061400-
...WEST CENTRAL VALLEYS...

CITY           SKY/WX    TMP DP  RH WIND       PRES   REMARKS
GRAND JUNCTION LGT RAIN  51  51 100 CALM      29.80R
MONTROSE       LGT RAIN  50  46  86 SE8       29.86R
EAGLE          LGT RAIN  41  41 100 E7        29.87R
RIFLE          LGT RAIN  48  45  89 CALM      29.82S
DELTA          CLOUDY    53  52  97 SE3       29.83R
NUCLA          CLOUDY    48  46  93 CALM      29.91R
$$

COZ017>023-064>068-061400-
...SOUTHWEST COLORADO...

CITY           SKY/WX    TMP DP  RH WIND       PRES   REMARKS
DURANGO        CLOUDY    46  44  93 W8        29.92S
CORTEZ         CLOUDY    49  46  90 SW3       29.91R
PAGOSA SPRINGS CLOUDY    44  43  98 SW7       29.95S
TELLURIDE      LGT RAIN  37  37 100 SE3       29.99R
WOLF CREEK PAS NOT AVBL
$$

COZ009-010-012-014-032>034-037-058>063-061400-
...CENTRAL COLORADO...

CITY           SKY/WX    TMP DP  RH WIND       PRES   REMARKS
ASPEN          CLOUDY    37  36  93 VRB3      29.88R
BUENA VISTA    NOT AVBL
COPPER MTN     CLOUDY    34  30  86 W13       29.97R WCI  25
BERTHOUD PASS  CLOUDY    28  19  69 NW25G35   29.95R WCI  14
COTTONWOOD PAS CLOUDY    43  34  70 NW9       29.90R
GUNNISON       MOCLDY    43  37  81 N5        29.91R
KREMMLING      CLOUDY    39  34  81 W14       29.85R
LEADVILLE      MIX PCPN  34  33  96 N7        29.89R WCI  28
MONARCH PASS   CLOUDY    30  30 100 MISG      30.07R
SALIDA         CLOUDY    49  39  70 SW12G20   29.89R
SUNLIGHT       SNOW      36  34  93 CALM      29.98S VSB 1/2
WILKERSON PASS SNOW      32  32 100 W9G16     29.94S VSB<1/4 WCI  24
$$

COZ069>075-061400-
...SAN LUIS VALLEY/SANGRE DE CRISTO MOUNTAINS...

CITY           SKY/WX    TMP DP  RH WIND       PRES   REMARKS
ALAMOSA        FOG       39  38  96 W3        29.87R VSB 1/4
LA VETA PASS   CLOUDY   N/A N/A N/A MISG      29.90R
SAGUACHE       CLOUDY    43  41  93 CALM      29.90R
$$

COZ035-036-038>040-061400-
...NORTHERN COLORADO FRONT RANGE...

CITY           SKY/WX    TMP DP  RH WIND       PRES   REMARKS
DENVER INTL AP CLOUDY    50  47  89 SW8       29.71R
DMNS CITY PARK   N/A     49  48  95 SW3       29.72R
AURORA         LGT RAIN  48  48 100 S6        29.72S FOG
FRONT RANGE AP CLOUDY    50  50 100 SW8       29.72R FOG
ERIE MUNI ARPT CLOUDY    49  48  95 SW3       29.71R
BOULDER MUN AP CLOUDY    48  46  93 CALM      29.70S
CENTENNIAL     LGT RAIN  48  47  96 CALM      29.73R
BROOMFIELD     CLOUDY    48  46  93 CALM      29.72S
FORT COLLINS   CLOUDY    52  46  82 CALM      29.71S
LONGMONT       CLOUDY    50  47  92 NW3       29.72S
$$

COZ041-046-047-076>085-087-088-061400-
...PIKES PEAK/PALMER DIVIDE AND SOUTHERN FOOTHILLS...

CITY           SKY/WX    TMP DP  RH WIND       PRES   REMARKS
COLO. SPRINGS  LGT RAIN  47  45  93 CALM      29.76R
A. F. ACADEMY  PTSUNNY   45  45 100 S3        29.75R
ELLICOTT       LGT RAIN N/A N/A N/A SE3       29.75R
FALCON         RAIN      44  44  98 CALM      29.78R
FORT CARSON    LGT RAIN  47  47 100 N6        29.74R
LIMON          LGT RAIN  48  46  93 S3        29.73R
MONUMENT HILL  RAIN      43  41  93 CALM      29.76R
TRINIDAD       PTSUNNY   47  43  86 E3        29.75R
$$

COZ042>045-048>051-090-091-061400-
...NORTHEAST COLORADO...

CITY           SKY/WX    TMP DP  RH WIND       PRES   REMARKS
GREELEY ARPT     N/A    N/A N/A N/A MISG        N/A
AKRON          CLOUDY    51  51 100 S15       29.66R FOG
BURLINGTON     CLOUDY    50  48  93 S13       29.70F
WRAY           CLOUDY   N/A N/A N/A SE8       29.68S
STERLING       CLOUDY    54  52  94 SE10      29.62S
HOLYOKE        NOT AVBL
FORT MORGAN    DRIZZLE   51  49  95 W9        29.66S
$$

COZ086-089-092>099-061400-
...SOUTHEAST COLORADO...

CITY           SKY/WX    TMP DP  RH WIND       PRES   REMARKS
PUEBLO         LGT RAIN  50  49  96 E5        29.71R FOG
LA JUNTA       LGT RAIN  53  51  93 CALM      29.71R
LAMAR          LGT RAIN  51  50  96 NE5       29.67S
SPRINGFIELD      N/A     49  48  97 SW7       29.71R
$$



USA.gov is the U.S. government's official web portal to all federal, state and local government web resources and services.